• In Hungary
  • List of Countries
  • For 7 days
  • Water Temperature
  • Satellite Maps
  • Weather Map
  • News
  • Weather Widgets
  • user-avatar
    Login

    Hourly Weather Ledowo

    Today, 12 November, Monday

    Time Temperature Precipitation Wind Pressure Humidity
    00:00 +7°C° 0 mm 6 mps 761 mmHg 87%
    01:00 +6°C° 0 mm 5 mps 761 mmHg 89%
    02:00 +7°C° 0 mm 6 mps 761 mmHg 89%
    03:00 +7°C° 0 mm 6 mps 762 mmHg 89%
    04:00 +7°C° 0 mm 6 mps 762 mmHg 89%
    05:00 +7°C° 0.1 mm 6 mps 762 mmHg 88%
    06:00 +7°C° 0.1 mm 6 mps 762 mmHg 86%
    07:00 +7°C° 0 mm 5 mps 762 mmHg 88%
    08:00 +8°C° 0 mm 5 mps 763 mmHg 85%
    09:00 +8°C° 0 mm 5 mps 763 mmHg 82%
    10:00 +9°C° 0 mm 5 mps 763 mmHg 79%
    11:00 +10°C° 0 mm 5 mps 763 mmHg 77%
    12:00 +12°C° 0 mm 4 mps 763 mmHg 74%
    13:00 +13°C° 0 mm 4 mps 763 mmHg 71%
    14:00 +12°C° 0.1 mm 4 mps 763 mmHg 73%
    15:00 +12°C° 0.1 mm 4 mps 763 mmHg 74%
    16:00 +12°C° 0.1 mm 4 mps 763 mmHg 76%
    17:00 +12°C° 0 mm 5 mps 763 mmHg 75%
    18:00 +12°C° 0 mm 5 mps 763 mmHg 73%
    19:00 +12°C° 0 mm 5 mps 763 mmHg 72%
    20:00 +11°C° 0 mm 6 mps 763 mmHg 74%
    21:00 +11°C° 0 mm 6 mps 763 mmHg 77%
    22:00 +10°C° 0 mm 6 mps 762 mmHg 79%
    23:00 +10°C° 0 mm 6 mps 762 mmHg 80%

    Tomorrow, 13 November, Tuesday

    Time Temperature Precipitation Wind Pressure Humidity
    00:00 +10°C° 0 mm 7 mps 762 mmHg 81%
    01:00 +10°C° 0 mm 7 mps 762 mmHg 82%
    02:00 +10°C° 0 mm 7 mps 762 mmHg 82%
    03:00 +9°C° 0 mm 7 mps 762 mmHg 83%
    04:00 +9°C° 0 mm 6 mps 762 mmHg 84%
    05:00 +9°C° 0.1 mm 6 mps 762 mmHg 85%
    06:00 +9°C° 0.1 mm 6 mps 763 mmHg 86%
    07:00 +9°C° 0.1 mm 5 mps 763 mmHg 87%
    08:00 +9°C° 0.2 mm 5 mps 763 mmHg 86%
    09:00 +10°C° 0.2 mm 4 mps 763 mmHg 86%
    10:00 +10°C° 0.2 mm 4 mps 763 mmHg 86%
    11:00 +10°C° 1.2 mm 4 mps 763 mmHg 87%
    12:00 +11°C° 1.2 mm 4 mps 763 mmHg 88%
    13:00 +11°C° 1.2 mm 4 mps 763 mmHg 89%
    14:00 +9°C° 1.5 mm 5 mps 763 mmHg 90%
    15:00 +9°C° 1.5 mm 5 mps 763 mmHg 91%
    16:00 +9°C° 1.5 mm 6 mps 763 mmHg 92%
    17:00 +9°C° 0.6 mm 6 mps 764 mmHg 91%
    18:00 +8°C° 0.6 mm 7 mps 764 mmHg 89%
    19:00 +8°C° 0.6 mm 7 mps 764 mmHg 88%
    20:00 +9°C° 0.5 mm 7 mps 764 mmHg 87%
    21:00 +9°C° 0.5 mm 8 mps 764 mmHg 85%
    22:00 +9°C° 0.5 mm 8 mps 764 mmHg 84%
    23:00 +9°C° 0.2 mm 8 mps 765 mmHg 85%

    Day after tomorrow, 14 November, Wednesday

    Time Temperature Precipitation Wind Pressure Humidity
    00:00 +9°C° 0.2 mm 8 mps 765 mmHg 85%
    01:00 +7°C° 0.2 mm 8 mps 765 mmHg 86%
    02:00 +7°C° 0.2 mm 8 mps 765 mmHg 86%
    03:00 +7°C° 0.2 mm 8 mps 765 mmHg 86%
    04:00 +8°C° 0.2 mm 7 mps 765 mmHg 86%
    05:00 +8°C° 0.2 mm 7 mps 766 mmHg 87%
    06:00 +8°C° 0.2 mm 7 mps 766 mmHg 88%
    07:00 +8°C° 0.2 mm 6 mps 766 mmHg 89%
    08:00 +9°C° 0.1 mm 6 mps 767 mmHg 87%
    09:00 +9°C° 0.1 mm 6 mps 767 mmHg 85%
    10:00 +9°C° 0.1 mm 6 mps 768 mmHg 83%
    11:00 +10°C° 0 mm 6 mps 768 mmHg 82%
    12:00 +10°C° 0 mm 5 mps 769 mmHg 80%
    13:00 +10°C° 0 mm 5 mps 769 mmHg 79%
    14:00 +9°C° 0 mm 5 mps 769 mmHg 81%
    15:00 +9°C° 0 mm 5 mps 769 mmHg 84%
    16:00 +8°C° 0 mm 4 mps 770 mmHg 87%
    17:00 +8°C° 0 mm 4 mps 770 mmHg 89%
    18:00 +8°C° 0 mm 3 mps 770 mmHg 92%
    19:00 +8°C° 0 mm 3 mps 771 mmHg 94%
    20:00 +8°C° 0 mm 3 mps 771 mmHg 95%
    21:00 +8°C° 0 mm 3 mps 771 mmHg 95%
    22:00 +8°C° 0 mm 2 mps 772 mmHg 95%
    23:00 +8°C° 0 mm 3 mps 772 mmHg 95%

    15 November, Thursday

    Time Temperature Precipitation Wind Pressure Humidity
    00:00 +8°C° 0 mm 3 mps 772 mmHg 95%
    01:00 +8°C° 0 mm 3 mps 772 mmHg 95%
    02:00 +7°C° 0 mm 3 mps 772 mmHg 95%
    03:00 +7°C° 0 mm 3 mps 772 mmHg 95%
    04:00 +7°C° 0 mm 3 mps 772 mmHg 95%
    05:00 +7°C° 0 mm 3 mps 773 mmHg 95%
    06:00 +5°C° 0 mm 3 mps 773 mmHg 95%
    07:00 +5°C° 0 mm 3 mps 773 mmHg 94%
    08:00 +7°C° 0 mm 3 mps 773 mmHg 91%
    09:00 +8°C° 0 mm 3 mps 773 mmHg 87%
    10:00 +8°C° 0 mm 3 mps 774 mmHg 83%
    11:00 +9°C° 0 mm 3 mps 774 mmHg 81%
    12:00 +9°C° 0 mm 3 mps 774 mmHg 78%
    13:00 +10°C° 0 mm 3 mps 774 mmHg 76%
    14:00 +9°C° 0 mm 2 mps 774 mmHg 78%
    15:00 +9°C° 0 mm 2 mps 774 mmHg 81%
    16:00 +8°C° 0 mm 2 mps 774 mmHg 83%
    17:00 +8°C° 0 mm 2 mps 774 mmHg 85%
    18:00 +7°C° 0 mm 2 mps 775 mmHg 87%
    19:00 +7°C° 0 mm 2 mps 775 mmHg 88%
    20:00 +7°C° 0 mm 3 mps 775 mmHg 89%
    21:00 +5°C° 0 mm 3 mps 775 mmHg 90%
    22:00 +5°C° 0 mm 3 mps 775 mmHg 91%
    23:00 +5°C° 0 mm 3 mps 775 mmHg 92%

    16 November, Friday

    Time Temperature Precipitation Wind Pressure Humidity
    00:00 +5°C° 0 mm 3 mps 776 mmHg 92%
    01:00 +5°C° 0 mm 4 mps 776 mmHg 93%
    02:00 +4°C° 0 mm 4 mps 776 mmHg 94%
    03:00 +4°C° 0 mm 4 mps 776 mmHg 94%
    04:00 +4°C° 0 mm 4 mps 776 mmHg 94%
    05:00 +4°C° 0 mm 3 mps 776 mmHg 94%
    06:00 +4°C° 0 mm 3 mps 776 mmHg 94%
    07:00 +3°C° 0 mm 3 mps 776 mmHg 94%
    08:00 +4°C° 0 mm 3 mps 777 mmHg 90%
    09:00 +5°C° 0 mm 4 mps 777 mmHg 86%
    10:00 +6°C° 0 mm 4 mps 777 mmHg 82%
    11:00 +6°C° 0 mm 4 mps 777 mmHg 78%
    12:00 +7°C° 0 mm 4 mps 777 mmHg 74%
    13:00 +9°C° 0 mm 3 mps 777 mmHg 70%
    14:00 +8°C° 0 mm 3 mps 777 mmHg 74%
    15:00 +7°C° 0 mm 3 mps 777 mmHg 78%
    16:00 +5°C° 0 mm 3 mps 777 mmHg 82%
    17:00 +5°C° 0 mm 3 mps 777 mmHg 84%
    18:00 +4°C° 0 mm 3 mps 777 mmHg 87%
    19:00 +4°C° 0 mm 3 mps 777 mmHg 89%
    20:00 +4°C° 0 mm 3 mps 778 mmHg 90%
    21:00 +3°C° 0 mm 3 mps 778 mmHg 91%
    22:00 +3°C° 0 mm 3 mps 778 mmHg 92%
    23:00 +3°C° 0 mm 3 mps 778 mmHg 92%

    17 November, Saturday

    Time Temperature Precipitation Wind Pressure Humidity
    00:00 +3°C° 0 mm 3 mps 778 mmHg 92%
    01:00 +2°C° 0 mm 3 mps 778 mmHg 93%
    02:00 +2°C° 0 mm 3 mps 778 mmHg 93%
    03:00 +2°C° 0 mm 3 mps 778 mmHg 92%
    04:00 +3°C° 0 mm 2 mps 778 mmHg 92%
    05:00 +3°C° 0 mm 2 mps 778 mmHg 92%
    06:00 +2°C° 0 mm 2 mps 778 mmHg 92%
    07:00 +2°C° 0 mm 2 mps 778 mmHg 91%
    08:00 +3°C° 0 mm 2 mps 778 mmHg 86%
    09:00 +4°C° 0 mm 2 mps 778 mmHg 81%
    10:00 +5°C° 0 mm 2 mps 778 mmHg 76%
    11:00 +6°C° 0 mm 2 mps 778 mmHg 72%
    12:00 +6°C° 0 mm 2 mps 778 mmHg 67%
    13:00 +8°C° 0 mm 1 mps 778 mmHg 63%
    14:00 +7°C° 0 mm 1 mps 778 mmHg 67%
    15:00 +7°C° 0 mm 1 mps 777 mmHg 70%
    16:00 +5°C° 0 mm 0 mps 777 mmHg 74%
    17:00 +5°C° 0 mm 0 mps 777 mmHg 75%
    18:00 +4°C° 0 mm 0 mps 777 mmHg 75%
    19:00 +4°C° 0 mm 0 mps 777 mmHg 76%
    20:00 +4°C° 0 mm 0 mps 777 mmHg 76%
    21:00 +4°C° 0 mm 0 mps 776 mmHg 76%
    22:00 +5°C° 0 mm 1 mps 776 mmHg 77%
    23:00 +5°C° 0 mm 1 mps 776 mmHg 78%
    Show more